Regional Weather Roundup
Issued by NWS Charleston, SC

Home | Current Version | Previous Version | Text Only | Print | Product List | Glossary On
Versions: 1 2 3 4 5 6 7 8 9 10 11 12 13 14 15 16 17 18 19 20 21 22 23 24 25 26 27 28 29 30 31 32 33 34 35 36 37 38 39 40 41 42 43 44 45 46 47 48 49 50
000
ASUS42 KCHS 220942
RWRCHS

REGIONAL WEATHER ROUNDUP
NATIONAL WEATHER SERVICE CHARLESTON SC
500 AM EDT FRI SEP 22 2017

NOTE: "FAIR" INDICATES FEW OR NO CLOUDS BELOW 12,000 FEET WITH NO
SIGNIFICANT WEATHER AND/OR OBSTRUCTIONS TO VISIBILITY.

NOT ALL STATIONS ARE QUALITY CONTROLLED. USE DATA WITH CAUTION...
ESPECIALLY DEWPOINT OBSERVATIONS.

SCZ027-030-031-034>040-042>050-221000-
...SOUTHEAST SOUTH CAROLINA...

CITY           SKY/WX    TMP DP  RH WIND       PRES   REMARKS
N CHARLESTON   PTCLDY    67  67 100 CALM      30.01R
WATERFRONT PRK   N/A     76  72  87 N5        29.84S
JOHNS ISLAND   FAIR      73  72  94 CALM      30.01R
PINOPOLIS        N/A     72  72 100 VRB3      29.93R
MONCKS CORNER  FAIR      64  64 100 CALM      30.02R
SUMMERVILLE    FAIR      66  64  94 CALM      30.02S
BEAUFORT MCAS  PTCLDY    72  72 100 CALM      30.00S
BEAUFORT ARPT  FAIR      73  72  94 CALM      30.00R
HILTON HEAD IS CLOUDY    73  73 100 CALM      30.01R
WALTERBORO     SUNNY     64  64 100 CALM      30.03R
ALLENDALE      NOT AVBL

...SOUTHERN MIDLANDS AND PEE DEE...

CITY           SKY/WX    TMP DP  RH WIND       PRES   REMARKS
GEORGETOWN     FAIR      68  66  94 CALM      30.02S FOG
KINGSTREE      FAIR      63  61  94 CALM      30.03R FOG
ORANGEBURG     CLEAR     67  66  97 CALM      30.02S
BARNWELL       FAIR      70  68  94 CALM      30.03R
AIKEN          FAIR      64  64 100 CALM      30.07R
MANNING        FAIR      64  57  77 CALM      30.03R HAZE
COLUMBIA       CLEAR     71  67  87 CALM      30.02S
SUMTER         CLEAR     67  64  91 NE3       30.01R
FLORENCE       CLEAR     67  66  97 CALM      30.03S
MYRTLE BEACH   CLEAR     69  66  90 N3        30.03S
N MYRTLE BEACH CLEAR     67  66  97 NE3       30.02S

$$

GAZ063-065-086>088-099>101-113>116-118-119-134>141-150-221000-
...SOUTHEAST GEORGIA...

CITY           SKY/WX    TMP DP  RH WIND       PRES   REMARKS
SAVANNAH ARPT  PTCLDY    71  70  96 N3        30.00S FOG
HUNTER AAF     CLOUDY    74  72  93 CALM      29.97S
FORT STEWART   PTCLDY    70  70 100 CALM      29.98S FOG
STATESBORO     CLEAR     67  67 100 CALM      30.01S
SYLVANIA       SUNNY     67  67 100 CALM      30.03R FOG
CLAXTON        FAIR      69  69  98 CALM      30.01S FOG

...CSRA...CENTRAL AND FAR SOUTHEAST GEORGIA...

CITY           SKY/WX    TMP DP  RH WIND       PRES   REMARKS
THOMSON        CLEAR     68  65  92 CALM      30.08R
AUGUSTA-BUSH   CLEAR     68  66  93 CALM      30.02R FOG
AUGUSTA-DANIEL CLEAR     72  67  84 E3        30.03R
SWAINSBORO     FAIR      68  68 100 CALM      30.03R
VIDALIA        CLEAR     72  70  94 CALM      30.02R FOG
EASTMAN          N/A     68  68 100 CALM      30.04R FOG
HAZLEHURST     FAIR      71  69  94 CALM      30.00R FOG
ALMA           FOG       69  68  96 CALM      30.00R VSB 1/4
WAYCROSS       PTCLDY    69  66  90 CALM      30.00R FOG
JESUP          NOT AVBL
BAXLEY         FAIR      68  68 100 CALM      30.01R FOG
BRUNSWICK      CLOUDY    73  72  94 CALM      29.99S
SAINT SIMONS   MOCLDY    77  73  87 CALM      29.98R

$$

SCZ027-028-034-036>038-045-046-048>050-GAZ119-141-221000-
...LAKE AND SUPPLEMENTAL COASTAL OBSERVATIONS...

STATION/POSITION TIME  TEMP    WIND        PRES    WAVE   SWELL
                       AIR SEA DIR/SP/G            HT/PER HT/PER/DIR
                 (UTC) (F)     (DEG/KT/KT) (MB)    (FT/S) (FT/S/D)
WINYAH BAY       0845   72     360/  2     1016.0S
LAKE MURRAY      0920   73      90/  2/  5 1016.6R
ACE BASIN NERRS  0845   72        CALM     1016.0S
FORT PULASKI     0900   76 80  360/  3/  4 1016.1
SAPELO ISLAND    0900   75        CALM     1015.0

$$

ANZ835-935-AMZ111-154-330-350-352-354-370-450-454-472-221000-
...C-MAN AND BUOY OBSERVATIONS...

STATION/POSITION TIME  TEMP    WIND        PRES    WAVE   SWELL
                       AIR SEA DIR/SP/G            HT/PER HT/PER/DIR
                 (UTC) (F)     (DEG/KT/KT) (MB)    (FT/S) (FT/S/D)
BUOY 41004       0910   80 81   30/  4/  6 1015.4
BUOY 41008       0850   80 81   60/  8/ 10 1015.0R   2/10   2/150/10
FOLLY BEACH CMAN 0900   75     330/  3/  4 1016.6R
CAPERS NEARSHORE 0908   75 81  360/  8/ 10 1015.8R
FRIPP NEARSHORE  0908   79      40/  4/  6 1021.0R


STATION/POSITION TIME  TEMP    WIND        PRES    WAVE   SWELL
                       AIR SEA DIR/SP/G            HT/PER HT/PER/DIR
                 (UTC) (F)     (DEG/KT/KT) (MB)    (FT/S) (FT/S/D)
5E ST. MARYS GA  0900      82                N/A     3/10   2/110/11
FRYING PAN BUOY  0910   78 82   80/  8/ 12 1015.5
BUOY 41025       0850   74 76  330/  4/  6 1016.2S   5/11   5/110/11
CAPE LOOKOUT NC  0900   76      60/ 10/ 10 1016.2R
BUOY 41002       0850   77 80   70/  2/  4 1015.5R   5/11   5/ 40/11
BUOY 41010       0910           50/ 10/ 14 1013.8
ST AUGUSTINE FL  0900   81 83   40/ 13/ 15 1014.2S


$$




USA.gov is the U.S. government's official web portal to all federal, state and local government web resources and services.